Wetterdaten: Dienstag, 07.07.2015
Datum Zeit Auen-Temp. Temp gefhlt Luftfeuchte Luftdruck Regen Wind Richtung Richtung Taupunkt Windben
07.07.2015 00:00 18,8 C 18,6 C 85 % 1022,3 hPa 0,0 mm 0,0 km/h (0 Bft) W-NW 292 16,2 C 0,0 km/h (0 Bft)
07.07.2015 00:05 18,8 C 18,6 C 85 % 1022,3 hPa 0,0 mm 0,0 km/h (0 Bft) W-NW 292 16,2 C 0,0 km/h (0 Bft)
07.07.2015 00:10 18,6 C 18,4 C 85 % 1022,3 hPa 0,0 mm 0,0 km/h (0 Bft) W-NW 292 16,0 C 0,0 km/h (0 Bft)
07.07.2015 00:15 18,5 C 18,3 C 85 % 1022,2 hPa 0,0 mm 0,0 km/h (0 Bft) W 270 15,9 C 0,0 km/h (0 Bft)
07.07.2015 00:20 18,5 C 18,3 C 86 % 1022,2 hPa 0,0 mm 0,0 km/h (0 Bft) S 180 16,1 C 0,0 km/h (0 Bft)
07.07.2015 00:25 18,5 C 18,3 C 86 % 1022,2 hPa 0,0 mm 0,0 km/h (0 Bft) W 270 16,1 C 0,0 km/h (0 Bft)
07.07.2015 00:30 18,5 C 18,3 C 86 % 1022,2 hPa 0,0 mm 0,0 km/h (0 Bft) W-SW 247 16,1 C 0,0 km/h (0 Bft)
07.07.2015 00:35 18,6 C 18,4 C 86 % 1022,1 hPa 0,0 mm 0,0 km/h (0 Bft) S-SW 202 16,2 C 0,0 km/h (0 Bft)
07.07.2015 00:40 18,5 C 18,3 C 86 % 1022,1 hPa 0,0 mm 0,0 km/h (0 Bft) W-SW 247 16,1 C 0,0 km/h (0 Bft)
07.07.2015 00:45 18,5 C 18,3 C 86 % 1022,1 hPa 0,0 mm 0,0 km/h (0 Bft) W 270 16,1 C 0,0 km/h (0 Bft)
07.07.2015 00:50 18,5 C 18,3 C 86 % 1022,1 hPa 0,0 mm 0,0 km/h (0 Bft) SW 225 16,1 C 0,0 km/h (0 Bft)
07.07.2015 00:55 18,5 C 18,3 C 86 % 1022,2 hPa 0,0 mm 0,0 km/h (0 Bft) W-SW 247 16,1 C 0,0 km/h (0 Bft)
07.07.2015 01:00 18,4 C 18,2 C 86 % 1022,2 hPa 0,0 mm 0,0 km/h (0 Bft) S 180 16,0 C 0,0 km/h (0 Bft)
07.07.2015 01:05 18,4 C 18,2 C 86 % 1022,2 hPa 0,0 mm 0,0 km/h (0 Bft) W-SW 247 16,0 C 0,0 km/h (0 Bft)
07.07.2015 01:10 18,4 C 18,2 C 86 % 1022,2 hPa 0,0 mm 0,0 km/h (0 Bft) W-NW 292 16,0 C 0,0 km/h (0 Bft)
07.07.2015 01:15 18,4 C 18,2 C 86 % 1022,1 hPa 0,0 mm 0,3 km/h (0 Bft) W-NW 292 16,0 C 3,4 km/h (1 Bft)
07.07.2015 01:20 18,2 C 18,0 C 86 % 1022,1 hPa 0,0 mm 0,3 km/h (0 Bft) W-NW 292 15,8 C 0,0 km/h (0 Bft)
07.07.2015 01:25 18,1 C 17,9 C 86 % 1022,1 hPa 0,0 mm 0,0 km/h (0 Bft) W-SW 247 15,7 C 0,0 km/h (0 Bft)
07.07.2015 01:28 18,1 C 17,9 C 86 % 1022,1 hPa 0,0 mm 0,0 km/h (0 Bft) SO 135 15,7 C 0,0 km/h (0 Bft)
07.07.2015 01:29 18,1 C 17,9 C 86 % 1022,1 hPa 0,0 mm 0,0 km/h (0 Bft) SO 135 15,7 C 0,0 km/h (0 Bft)
07.07.2015 01:30 18,1 C 17,9 C 86 % 1022,1 hPa 0,0 mm 0,0 km/h (0 Bft) SO 135 15,7 C 0,0 km/h (0 Bft)
07.07.2015 01:35 18,0 C 17,8 C 86 % 1021,7 hPa 0,0 mm 0,0 km/h (0 Bft) SO 135 15,6 C 0,0 km/h (0 Bft)
07.07.2015 01:40 17,9 C 17,7 C 86 % 1021,7 hPa 0,0 mm 0,0 km/h (0 Bft) N 360 15,5 C 0,0 km/h (0 Bft)
07.07.2015 01:45 17,8 C 17,6 C 86 % 1021,7 hPa 0,0 mm 0,0 km/h (0 Bft) W-SW 247 15,4 C 0,0 km/h (0 Bft)
07.07.2015 01:50 17,8 C 17,6 C 86 % 1021,7 hPa 0,0 mm 0,0 km/h (0 Bft) N-NO 22 15,4 C 0,0 km/h (0 Bft)
07.07.2015 01:55 17,8 C 17,6 C 86 % 1021,7 hPa 0,0 mm 0,0 km/h (0 Bft) N-NO 22 15,4 C 0,0 km/h (0 Bft)
07.07.2015 02:00 17,7 C 17,5 C 86 % 1021,7 hPa 0,0 mm 0,0 km/h (0 Bft) NW 315 15,3 C 0,0 km/h (0 Bft)
07.07.2015 02:05 17,6 C 17,4 C 86 % 1021,7 hPa 0,0 mm 0,0 km/h (0 Bft) N-NW 337 15,2 C 0,0 km/h (0 Bft)
07.07.2015 02:10 17,7 C 17,5 C 87 % 1021,7 hPa 0,0 mm 0,0 km/h (0 Bft) S 180 15,5 C 0,0 km/h (0 Bft)
07.07.2015 02:15 17,8 C 17,6 C 87 % 1021,7 hPa 0,0 mm 0,0 km/h (0 Bft) S 180 15,6 C 0,0 km/h (0 Bft)
07.07.2015 02:20 17,6 C 17,4 C 86 % 1021,7 hPa 0,0 mm 0,0 km/h (0 Bft) S-SO 157 15,2 C 0,0 km/h (0 Bft)
07.07.2015 02:25 17,6 C 17,4 C 86 % 1021,7 hPa 0,0 mm 0,0 km/h (0 Bft) W 270 15,2 C 0,0 km/h (0 Bft)
07.07.2015 02:30 17,4 C 17,2 C 86 % 1021,7 hPa 0,0 mm 0,0 km/h (0 Bft) S 180 15,0 C 0,0 km/h (0 Bft)
07.07.2015 02:35 17,4 C 17,2 C 86 % 1021,3 hPa 0,0 mm 0,0 km/h (0 Bft) SW 225 15,0 C 0,0 km/h (0 Bft)
07.07.2015 02:40 17,5 C 17,2 C 86 % 1021,3 hPa 0,0 mm 0,3 km/h (0 Bft) W-SW 247 15,1 C 5,4 km/h (1 Bft)
07.07.2015 02:45 17,6 C 17,3 C 86 % 1021,3 hPa 0,0 mm 0,3 km/h (0 Bft) N-NO 22 15,2 C 0,0 km/h (0 Bft)
07.07.2015 02:50 17,4 C 17,2 C 86 % 1021,3 hPa 0,0 mm 0,0 km/h (0 Bft) O-NO 67 15,0 C 0,0 km/h (0 Bft)
07.07.2015 02:55 17,3 C 17,1 C 86 % 1021,1 hPa 0,0 mm 0,0 km/h (0 Bft) NO 45 14,9 C 0,0 km/h (0 Bft)
07.07.2015 03:00 17,2 C 17,0 C 86 % 1021,1 hPa 0,0 mm 0,0 km/h (0 Bft) N-NW 337 14,8 C 0,0 km/h (0 Bft)
07.07.2015 03:05 17,1 C 16,9 C 86 % 1021,1 hPa 0,0 mm 0,0 km/h (0 Bft) W-SW 247 14,7 C 0,0 km/h (0 Bft)
07.07.2015 03:10 17,0 C 16,8 C 86 % 1021,1 hPa 0,0 mm 0,0 km/h (0 Bft) N-NO 22 14,6 C 0,0 km/h (0 Bft)
07.07.2015 03:15 16,8 C 16,6 C 86 % 1021,2 hPa 0,0 mm 0,0 km/h (0 Bft) NW 315 14,4 C 0,0 km/h (0 Bft)
07.07.2015 03:20 16,7 C 16,5 C 86 % 1021,2 hPa 0,0 mm 0,3 km/h (0 Bft) N-NO 22 14,3 C 0,0 km/h (0 Bft)
07.07.2015 03:25 16,8 C 16,5 C 86 % 1021,2 hPa 0,0 mm 0,3 km/h (0 Bft) W 270 14,4 C 0,0 km/h (0 Bft)
07.07.2015 03:30 16,9 C 16,6 C 86 % 1021,2 hPa 0,0 mm 0,0 km/h (0 Bft) NO 45 14,5 C 0,0 km/h (0 Bft)
07.07.2015 03:35 17,0 C 16,7 C 86 % 1020,9 hPa 0,0 mm 0,0 km/h (0 Bft) NO 45 14,6 C 0,0 km/h (0 Bft)
07.07.2015 03:40 17,0 C 16,7 C 85 % 1020,9 hPa 0,0 mm 0,0 km/h (0 Bft) W-NW 292 14,5 C 0,0 km/h (0 Bft)
07.07.2015 03:45 16,9 C 16,6 C 86 % 1020,9 hPa 0,0 mm 0,0 km/h (0 Bft) W-NW 292 14,5 C 0,0 km/h (0 Bft)
07.07.2015 03:50 16,8 C 16,5 C 85 % 1020,9 hPa 0,0 mm 0,3 km/h (0 Bft) NW 315 14,3 C 3,4 km/h (1 Bft)
07.07.2015 03:55 16,8 C 16,5 C 85 % 1020,8 hPa 0,0 mm 0,3 km/h (0 Bft) W-NW 292 14,3 C 0,0 km/h (0 Bft)
07.07.2015 04:00 16,8 C 16,5 C 85 % 1020,8 hPa 0,0 mm 0,3 km/h (0 Bft) NW 315 14,3 C 0,0 km/h (0 Bft)
07.07.2015 04:05 16,8 C 16,5 C 85 % 1020,8 hPa 0,0 mm 0,0 km/h (0 Bft) NW 315 14,3 C 0,0 km/h (0 Bft)
07.07.2015 04:10 16,7 C 16,5 C 85 % 1020,8 hPa 0,0 mm 0,0 km/h (0 Bft) N 360 14,2 C 0,0 km/h (0 Bft)
07.07.2015 04:15 16,8 C 16,6 C 85 % 1020,7 hPa 0,0 mm 0,0 km/h (0 Bft) N-NO 22 14,3 C 0,0 km/h (0 Bft)
07.07.2015 04:20 16,7 C 16,5 C 84 % 1020,7 hPa 0,0 mm 0,0 km/h (0 Bft) N-NW 337 14,0 C 0,0 km/h (0 Bft)
07.07.2015 04:25 16,7 C 16,5 C 84 % 1020,7 hPa 0,0 mm 0,0 km/h (0 Bft) N-NO 22 14,0 C 0,0 km/h (0 Bft)
07.07.2015 04:30 16,7 C 16,5 C 84 % 1020,7 hPa 0,0 mm 0,0 km/h (0 Bft) N-NO 22 14,0 C 0,0 km/h (0 Bft)
07.07.2015 04:35 16,7 C 16,5 C 84 % 1020,6 hPa 0,0 mm 0,0 km/h (0 Bft) N-NO 22 14,0 C 0,0 km/h (0 Bft)
07.07.2015 04:40 16,9 C 16,7 C 83 % 1020,6 hPa 0,0 mm 0,0 km/h (0 Bft) N-NO 22 14,0 C 0,0 km/h (0 Bft)
07.07.2015 04:45 16,7 C 16,6 C 83 % 1020,6 hPa 0,0 mm 0,0 km/h (0 Bft) N-NO 22 13,8 C 0,0 km/h (0 Bft)
07.07.2015 04:50 16,8 C 16,7 C 83 % 1020,6 hPa 0,0 mm 0,0 km/h (0 Bft) N-NW 337 13,9 C 0,0 km/h (0 Bft)
07.07.2015 04:55 16,9 C 16,8 C 83 % 1020,4 hPa 0,0 mm 0,0 km/h (0 Bft) W-NW 292 14,0 C 0,0 km/h (0 Bft)
07.07.2015 05:00 16,8 C 16,7 C 82 % 1020,4 hPa 0,0 mm 0,0 km/h (0 Bft) N-NO 22 13,7 C 0,0 km/h (0 Bft)
07.07.2015 05:05 16,7 C 16,6 C 82 % 1020,4 hPa 0,0 mm 0,0 km/h (0 Bft) NO 45 13,6 C 0,0 km/h (0 Bft)
07.07.2015 05:10 16,8 C 16,7 C 82 % 1020,4 hPa 0,0 mm 0,0 km/h (0 Bft) N-NO 22 13,7 C 0,0 km/h (0 Bft)
07.07.2015 05:15 16,8 C 16,7 C 82 % 1020,4 hPa 0,0 mm 0,0 km/h (0 Bft) N-NO 22 13,7 C 0,0 km/h (0 Bft)
07.07.2015 05:20 16,8 C 16,7 C 82 % 1020,4 hPa 0,0 mm 0,3 km/h (0 Bft) W-NW 292 13,7 C 0,0 km/h (0 Bft)
07.07.2015 05:25 16,8 C 16,7 C 81 % 1020,4 hPa 0,0 mm 0,3 km/h (0 Bft) N-NW 337 13,5 C 0,0 km/h (0 Bft)
07.07.2015 05:30 16,8 C 16,7 C 81 % 1020,4 hPa 0,0 mm 0,0 km/h (0 Bft) O-NO 67 13,5 C 0,0 km/h (0 Bft)
07.07.2015 05:35 16,8 C 16,7 C 81 % 1020,2 hPa 0,0 mm 0,0 km/h (0 Bft) NO 45 13,5 C 0,0 km/h (0 Bft)
07.07.2015 05:40 16,8 C 16,7 C 81 % 1020,2 hPa 0,0 mm 0,0 km/h (0 Bft) N-NW 337 13,5 C 0,0 km/h (0 Bft)
07.07.2015 05:45 16,8 C 16,8 C 81 % 1020,2 hPa 0,0 mm 0,0 km/h (0 Bft) W 270 13,5 C 0,0 km/h (0 Bft)
07.07.2015 05:50 17,1 C 17,0 C 80 % 1020,2 hPa 0,0 mm 0,0 km/h (0 Bft) N-NO 22 13,6 C 0,0 km/h (0 Bft)
07.07.2015 05:55 16,9 C 17,0 C 80 % 1020,2 hPa 0,0 mm 0,0 km/h (0 Bft) N 360 13,4 C 0,0 km/h (0 Bft)
07.07.2015 06:00 17,0 C 17,0 C 79 % 1020,2 hPa 0,0 mm 0,0 km/h (0 Bft) W 270 13,3 C 0,0 km/h (0 Bft)
07.07.2015 06:05 17,1 C 17,1 C 79 % 1020,2 hPa 0,0 mm 0,0 km/h (0 Bft) W-NW 292 13,4 C 0,0 km/h (0 Bft)
07.07.2015 06:10 17,4 C 18,2 C 79 % 1020,2 hPa 0,0 mm 0,0 km/h (0 Bft) NW 315 13,7 C 0,0 km/h (0 Bft)
07.07.2015 06:15 17,6 C 18,8 C 79 % 1020,1 hPa 0,0 mm 0,0 km/h (0 Bft) NW 315 13,9 C 0,0 km/h (0 Bft)
07.07.2015 06:20 17,7 C 19,5 C 79 % 1020,1 hPa 0,0 mm 0,0 km/h (0 Bft) N-NW 337 14,0 C 0,0 km/h (0 Bft)
07.07.2015 06:25 17,7 C 19,8 C 78 % 1020,1 hPa 0,0 mm 0,0 km/h (0 Bft) O-NO 67 13,8 C 0,0 km/h (0 Bft)
07.07.2015 06:30 18,0 C 20,7 C 76 % 1020,1 hPa 0,0 mm 0,0 km/h (0 Bft) O-SO 112 13,7 C 0,0 km/h (0 Bft)
07.07.2015 06:35 18,2 C 21,4 C 75 % 1020,1 hPa 0,0 mm 0,0 km/h (0 Bft) N-NO 22 13,7 C 0,0 km/h (0 Bft)
07.07.2015 06:40 18,7 C 22,3 C 75 % 1020,1 hPa 0,0 mm 0,0 km/h (0 Bft) N-NO 22 14,2 C 0,0 km/h (0 Bft)
07.07.2015 06:45 18,9 C 22,9 C 75 % 1020,1 hPa 0,0 mm 0,0 km/h (0 Bft) NO 45 14,4 C 0,0 km/h (0 Bft)
07.07.2015 06:50 18,6 C 23,2 C 75 % 1020,1 hPa 0,0 mm 0,0 km/h (0 Bft) O-NO 67 14,1 C 2,6 km/h (1 Bft)
07.07.2015 06:55 18,8 C 23,2 C 75 % 1020,1 hPa 0,0 mm 0,3 km/h (0 Bft) NO 45 14,3 C 0,0 km/h (0 Bft)
07.07.2015 07:00 19,0 C 23,7 C 73 % 1020,1 hPa 0,0 mm 0,3 km/h (0 Bft) O-NO 67 14,0 C 0,0 km/h (0 Bft)
07.07.2015 07:05 19,5 C 24,1 C 74 % 1020,1 hPa 0,0 mm 0,0 km/h (0 Bft) NO 45 14,7 C 0,0 km/h (0 Bft)
07.07.2015 07:10 19,7 C 25,0 C 72 % 1020,1 hPa 0,0 mm 0,0 km/h (0 Bft) O-NO 67 14,5 C 0,0 km/h (0 Bft)
07.07.2015 07:15 19,9 C 25,5 C 72 % 1020,1 hPa 0,0 mm 0,0 km/h (0 Bft) O-NO 67 14,7 C 0,0 km/h (0 Bft)
07.07.2015 07:20 20,7 C 26,7 C 72 % 1020,1 hPa 0,0 mm 0,0 km/h (0 Bft) O-NO 67 15,5 C 0,0 km/h (0 Bft)
07.07.2015 07:25 20,8 C 27,0 C 71 % 1020,1 hPa 0,0 mm 0,0 km/h (0 Bft) N-NO 22 15,3 C 0,0 km/h (0 Bft)
07.07.2015 07:28 21,1 C 27,7 C 71 % 1020,1 hPa 0,0 mm 0,0 km/h (0 Bft) O-NO 67 15,6 C 0,0 km/h (0 Bft)
07.07.2015 07:30 21,1 C 27,7 C 71 % 1020,1 hPa 0,0 mm 0,0 km/h (0 Bft) O-NO 67 15,6 C 0,0 km/h (0 Bft)
07.07.2015 07:35 21,1 C 28,2 C 70 % 1020,1 hPa 0,0 mm 0,0 km/h (0 Bft) O-NO 67 15,4 C 0,0 km/h (0 Bft)
07.07.2015 07:40 22,1 C 28,7 C 71 % 1020,1 hPa 0,0 mm 0,0 km/h (0 Bft) NO 45 16,6 C 0,0 km/h (0 Bft)
07.07.2015 07:45 22,5 C 29,7 C 71 % 1020,1 hPa 0,0 mm 0,0 km/h (0 Bft) NO 45 17,0 C 0,0 km/h (0 Bft)
07.07.2015 07:50 22,1 C 30,4 C 69 % 1020,1 hPa 0,0 mm 0,0 km/h (0 Bft) O-NO 67 16,1 C 0,0 km/h (0 Bft)
07.07.2015 07:55 22,8 C 30,7 C 69 % 1020,1 hPa 0,0 mm 0,0 km/h (0 Bft) NO 45 16,8 C 0,0 km/h (0 Bft)
07.07.2015 08:00 22,8 C 31,2 C 68 % 1020,1 hPa 0,0 mm 0,0 km/h (0 Bft) O-NO 67 16,6 C 0,0 km/h (0 Bft)
07.07.2015 08:05 23,4 C 31,8 C 68 % 1020,1 hPa 0,0 mm 0,0 km/h (0 Bft) O-NO 67 17,1 C 0,0 km/h (0 Bft)
07.07.2015 08:10 23,6 C 32,2 C 68 % 1020,1 hPa 0,0 mm 0,0 km/h (0 Bft) NO 45 17,3 C 0,0 km/h (0 Bft)
07.07.2015 08:15 24,0 C 32,8 C 68 % 1020,1 hPa 0,0 mm 0,0 km/h (0 Bft) O-NO 67 17,7 C 0,0 km/h (0 Bft)
07.07.2015 08:20 24,5 C 33,2 C 67 % 1020,1 hPa 0,0 mm 0,0 km/h (0 Bft) O-NO 67 18,0 C 0,0 km/h (0 Bft)
07.07.2015 08:25 24,6 C 33,5 C 66 % 1020,1 hPa 0,0 mm 0,0 km/h (0 Bft) O-NO 67 17,8 C 0,0 km/h (0 Bft)
07.07.2015 08:30 24,4 C 34,5 C 66 % 1020,1 hPa 0,0 mm 0,0 km/h (0 Bft) N-NO 22 17,6 C 0,0 km/h (0 Bft)
07.07.2015 08:35 24,7 C 35,2 C 66 % 1020,1 hPa 0,0 mm 0,0 km/h (0 Bft) NO 45 17,9 C 0,0 km/h (0 Bft)
07.07.2015 08:40 25,2 C 35,7 C 66 % 1020,1 hPa 0,0 mm 0,0 km/h (0 Bft) N-NO 22 18,4 C 0,0 km/h (0 Bft)
07.07.2015 08:45 25,5 C 36,1 C 66 % 1020,1 hPa 0,0 mm 0,0 km/h (0 Bft) NO 45 18,7 C 0,0 km/h (0 Bft)
07.07.2015 08:50 25,8 C 35,6 C 66 % 1020,1 hPa 0,0 mm 0,0 km/h (0 Bft) O-NO 67 19,0 C 0,0 km/h (0 Bft)
07.07.2015 08:55 26,0 C 35,7 C 65 % 1020,4 hPa 0,0 mm 0,0 km/h (0 Bft) N-NW 337 18,9 C 0,0 km/h (0 Bft)
07.07.2015 09:00 26,5 C 36,0 C 64 % 1020,4 hPa 0,0 mm 0,0 km/h (0 Bft) N 360 19,1 C 0,0 km/h (0 Bft)
07.07.2015 09:05 26,6 C 36,5 C 64 % 1020,4 hPa 0,0 mm 0,0 km/h (0 Bft) N 360 19,2 C 0,0 km/h (0 Bft)
07.07.2015 09:10 27,2 C 37,4 C 63 % 1020,4 hPa 0,0 mm 0,0 km/h (0 Bft) N-NW 337 19,5 C 0,0 km/h (0 Bft)
07.07.2015 09:15 27,4 C 37,8 C 63 % 1019,9 hPa 0,0 mm 0,0 km/h (0 Bft) N 360 19,7 C 0,0 km/h (0 Bft)
07.07.2015 09:20 28,2 C 38,9 C 61 % 1019,9 hPa 0,0 mm 0,0 km/h (0 Bft) N 360 19,9 C 0,0 km/h (0 Bft)
07.07.2015 09:25 27,8 C 38,6 C 61 % 1019,9 hPa 0,0 mm 0,3 km/h (0 Bft) N-NO 22 19,6 C 0,0 km/h (0 Bft)
07.07.2015 09:30 28,4 C 38,5 C 61 % 1019,9 hPa 0,0 mm 0,3 km/h (0 Bft) N 360 20,1 C 0,0 km/h (0 Bft)
07.07.2015 09:35 29,0 C 38,9 C 60 % 1019,9 hPa 0,0 mm 0,0 km/h (0 Bft) N-NO 22 20,4 C 0,0 km/h (0 Bft)
07.07.2015 09:40 29,4 C 39,5 C 60 % 1019,9 hPa 0,0 mm 0,0 km/h (0 Bft) N-NO 22 20,8 C 0,0 km/h (0 Bft)
07.07.2015 09:45 29,0 C 39,2 C 58 % 1019,9 hPa 0,0 mm 0,3 km/h (0 Bft) N 360 19,9 C 0,0 km/h (0 Bft)
07.07.2015 09:50 29,6 C 39,4 C 59 % 1019,9 hPa 0,0 mm 0,5 km/h (0 Bft) N-NW 337 20,7 C 3,4 km/h (1 Bft)
07.07.2015 09:55 29,8 C 38,8 C 58 % 1019,9 hPa 0,0 mm 0,5 km/h (0 Bft) O-NO 67 20,6 C 0,0 km/h (0 Bft)
07.07.2015 10:00 29,9 C 38,3 C 56 % 1019,9 hPa 0,0 mm 0,5 km/h (0 Bft) O-NO 67 20,1 C 2,6 km/h (1 Bft)
07.07.2015 10:05 30,0 C 37,8 C 55 % 1019,9 hPa 0,0 mm 1,3 km/h (1 Bft) N-NW 337 19,9 C 6,2 km/h (2 Bft)
07.07.2015 10:10 29,8 C 37,4 C 56 % 1019,9 hPa 0,0 mm 1,8 km/h (1 Bft) O 90 20,1 C 0,0 km/h (0 Bft)
07.07.2015 10:15 29,8 C 37,3 C 55 % 1020,1 hPa 0,0 mm 1,0 km/h (0 Bft) O-NO 67 19,8 C 0,0 km/h (0 Bft)
07.07.2015 10:20 30,4 C 37,4 C 52 % 1020,1 hPa 0,0 mm 1,8 km/h (1 Bft) N-NO 22 19,4 C 3,9 km/h (1 Bft)
07.07.2015 10:25 30,3 C 37,3 C 50 % 1020,1 hPa 0,0 mm 2,6 km/h (1 Bft) O 90 18,7 C 3,9 km/h (1 Bft)
07.07.2015 10:30 30,0 C 36,9 C 52 % 1020,1 hPa 0,0 mm 1,6 km/h (1 Bft) O 90 19,0 C 7,5 km/h (2 Bft)
07.07.2015 10:35 30,3 C 37,0 C 52 % 1020,1 hPa 0,0 mm 1,6 km/h (1 Bft) N-NO 22 19,3 C 4,7 km/h (1 Bft)
07.07.2015 10:40 30,8 C 37,8 C 50 % 1020,1 hPa 0,0 mm 1,6 km/h (1 Bft) N-NW 337 19,1 C 4,9 km/h (1 Bft)
07.07.2015 10:45 30,8 C 37,8 C 49 % 1020,1 hPa 0,0 mm 1,8 km/h (1 Bft) N-NO 22 18,8 C 4,4 km/h (1 Bft)
07.07.2015 10:50 30,6 C 37,5 C 49 % 1020,1 hPa 0,0 mm 2,1 km/h (1 Bft) O-SO 112 18,6 C 0,0 km/h (0 Bft)
07.07.2015 10:55 30,6 C 37,8 C 49 % 1020,2 hPa 0,0 mm 1,3 km/h (1 Bft) NO 45 18,6 C 3,1 km/h (1 Bft)
07.07.2015 11:00 31,0 C 38,7 C 49 % 1020,2 hPa 0,0 mm 0,5 km/h (0 Bft) O-NO 67 19,0 C 4,1 km/h (1 Bft)
07.07.2015 11:05 31,5 C 38,7 C 50 % 1020,2 hPa 0,0 mm 0,8 km/h (0 Bft) W-NW 292 19,8 C 4,1 km/h (1 Bft)
07.07.2015 11:10 31,7 C 38,4 C 51 % 1020,2 hPa 0,0 mm 3,6 km/h (1 Bft) W-SW 247 20,3 C 11,9 km/h (2 Bft)
07.07.2015 11:15 31,6 C 37,6 C 50 % 1020,2 hPa 0,0 mm 6,5 km/h (2 Bft) W 270 19,9 C 14,2 km/h (3 Bft)
07.07.2015 11:20 31,2 C 36,2 C 49 % 1020,2 hPa 0,0 mm 8,3 km/h (2 Bft) NO 45 19,2 C 15,5 km/h (3 Bft)
07.07.2015 11:25 31,3 C 36,2 C 49 % 1020,2 hPa 0,0 mm 7,8 km/h (2 Bft) W 270 19,3 C 10,6 km/h (2 Bft)
07.07.2015 11:30 31,1 C 36,2 C 49 % 1020,2 hPa 0,0 mm 6,2 km/h (2 Bft) W 270 19,1 C 8,8 km/h (2 Bft)
07.07.2015 11:35 31,3 C 36,3 C 49 % 1020,3 hPa 0,0 mm 6,0 km/h (2 Bft) W-NW 292 19,3 C 8,3 km/h (2 Bft)
07.07.2015 11:40 31,2 C 36,3 C 48 % 1020,3 hPa 0,0 mm 6,0 km/h (2 Bft) W-NW 292 18,9 C 6,5 km/h (2 Bft)
07.07.2015 11:45 31,3 C 36,5 C 48 % 1020,3 hPa 0,0 mm 5,7 km/h (1 Bft) W 270 18,9 C 7,8 km/h (2 Bft)
07.07.2015 11:50 31,7 C 36,8 C 47 % 1020,3 hPa 0,0 mm 4,7 km/h (1 Bft) W 270 19,0 C 9,8 km/h (2 Bft)
07.07.2015 11:55 32,1 C 37,0 C 48 % 1020,1 hPa 0,0 mm 4,1 km/h (1 Bft) N 360 19,7 C 5,7 km/h (1 Bft)
07.07.2015 12:00 32,1 C 37,4 C 47 % 1020,1 hPa 0,0 mm 3,4 km/h (1 Bft) N-NW 337 19,3 C 5,7 km/h (1 Bft)
07.07.2015 12:05 32,2 C 37,4 C 47 % 1020,1 hPa 0,0 mm 3,9 km/h (1 Bft) NO 45 19,4 C 7,0 km/h (2 Bft)
07.07.2015 12:10 31,9 C 37,1 C 46 % 1020,1 hPa 0,0 mm 5,7 km/h (1 Bft) W-NW 292 18,8 C 16,1 km/h (3 Bft)
07.07.2015 12:15 31,9 C 37,0 C 46 % 1020,1 hPa 0,0 mm 5,4 km/h (1 Bft) NW 315 18,8 C 0,0 km/h (0 Bft)
07.07.2015 12:20 31,8 C 36,8 C 45 % 1020,1 hPa 0,0 mm 5,4 km/h (1 Bft) NW 315 18,4 C 15,8 km/h (3 Bft)
07.07.2015 12:21 31,8 C 36,8 C 45 % 1020,1 hPa 0,0 mm 5,4 km/h (1 Bft) NW 315 18,4 C 15,8 km/h (3 Bft)
07.07.2015 12:25 31,8 C 36,8 C 45 % 1020,1 hPa 0,0 mm 5,4 km/h (1 Bft) NW 315 18,4 C 15,8 km/h (3 Bft)
07.07.2015 12:30 31,9 C 36,5 C 46 % 1020,1 hPa 0,0 mm 7,3 km/h (2 Bft) NW 315 18,8 C 9,6 km/h (2 Bft)
07.07.2015 12:35 31,7 C 36,5 C 44 % 1020,1 hPa 0,0 mm 6,7 km/h (2 Bft) W 270 17,9 C 9,1 km/h (2 Bft)
07.07.2015 12:40 31,7 C 36,0 C 44 % 1019,9 hPa 0,0 mm 7,5 km/h (2 Bft) NW 315 17,9 C 7,0 km/h (2 Bft)
07.07.2015 12:45 31,9 C 36,2 C 45 % 1019,9 hPa 0,0 mm 7,3 km/h (2 Bft) W-NW 292 18,5 C 7,5 km/h (2 Bft)
07.07.2015 12:50 32,0 C 36,3 C 44 % 1019,9 hPa 0,0 mm 6,0 km/h (2 Bft) W-NW 292 18,2 C 6,7 km/h (2 Bft)
07.07.2015 12:55 32,1 C 36,5 C 44 % 1019,9 hPa 0,0 mm 5,4 km/h (1 Bft) W-SW 247 18,3 C 6,0 km/h (2 Bft)
07.07.2015 13:00 32,0 C 36,5 C 43 % 1019,8 hPa 0,0 mm 6,5 km/h (2 Bft) W 270 17,8 C 16,3 km/h (3 Bft)
07.07.2015 13:05 32,1 C 36,1 C 44 % 1019,8 hPa 0,0 mm 7,8 km/h (2 Bft) W-NW 292 18,3 C 7,0 km/h (2 Bft)
07.07.2015 13:10 32,3 C 36,3 C 42 % 1019,8 hPa 0,0 mm 7,0 km/h (2 Bft) W 270 17,7 C 11,9 km/h (2 Bft)
07.07.2015 13:15 32,3 C 36,3 C 43 % 1019,8 hPa 0,0 mm 5,7 km/h (1 Bft) W-NW 292 18,1 C 4,7 km/h (1 Bft)
07.07.2015 13:20 32,5 C 36,2 C 43 % 1019,6 hPa 0,0 mm 5,4 km/h (1 Bft) W-SW 247 18,3 C 10,1 km/h (2 Bft)
07.07.2015 13:25 32,6 C 35,6 C 43 % 1019,6 hPa 0,0 mm 5,7 km/h (1 Bft) N 360 18,4 C 6,2 km/h (2 Bft)
07.07.2015 13:26 32,7 C 34,9 C 43 % 1019,6 hPa 0,0 mm 5,7 km/h (1 Bft) S-SW 202 18,5 C 0,0 km/h (0 Bft)
07.07.2015 13:31 33,0 C 35,1 C 43 % 1019,6 hPa 0,0 mm 3,9 km/h (1 Bft) N-NO 22 18,7 C 0,0 km/h (0 Bft)
07.07.2015 13:35 33,0 C 35,1 C 43 % 1019,6 hPa 0,0 mm 3,9 km/h (1 Bft) N-NO 22 18,7 C 0,0 km/h (0 Bft)
07.07.2015 13:40 33,2 C 35,8 C 42 % 1019,3 hPa 0,0 mm 2,8 km/h (1 Bft) W-NW 292 18,5 C 8,0 km/h (2 Bft)
07.07.2015 13:45 33,2 C 36,2 C 42 % 1019,3 hPa 0,0 mm 4,7 km/h (1 Bft) W-NW 292 18,5 C 9,3 km/h (2 Bft)
07.07.2015 13:50 32,9 C 36,7 C 43 % 1019,3 hPa 0,0 mm 6,5 km/h (2 Bft) S 180 18,6 C 0,0 km/h (0 Bft)
07.07.2015 13:55 32,9 C 37,0 C 43 % 1019,3 hPa 0,0 mm 6,0 km/h (2 Bft) W 270 18,6 C 10,9 km/h (2 Bft)
07.07.2015 14:00 33,3 C 37,0 C 42 % 1019,1 hPa 0,0 mm 4,7 km/h (1 Bft) N-NW 337 18,6 C 0,0 km/h (0 Bft)
07.07.2015 14:05 33,4 C 37,6 C 41 % 1019,1 hPa 0,0 mm 4,9 km/h (1 Bft) N-NO 22 18,3 C 13,5 km/h (3 Bft)
07.07.2015 14:10 33,4 C 37,6 C 40 % 1019,1 hPa 0,0 mm 4,9 km/h (1 Bft) W 270 17,9 C 3,4 km/h (1 Bft)
07.07.2015 14:15 33,7 C 38,1 C 40 % 1019,1 hPa 0,0 mm 4,1 km/h (1 Bft) S 180 18,2 C 0,0 km/h (0 Bft)
07.07.2015 14:20 33,9 C 38,1 C 40 % 1018,8 hPa 0,0 mm 4,9 km/h (1 Bft) W 270 18,4 C 16,6 km/h (3 Bft)
07.07.2015 14:25 33,8 C 37,7 C 40 % 1018,8 hPa 0,0 mm 7,0 km/h (2 Bft) W-NW 292 18,3 C 7,0 km/h (2 Bft)
07.07.2015 14:30 33,7 C 37,5 C 40 % 1018,8 hPa 0,0 mm 7,5 km/h (2 Bft) NW 315 18,2 C 7,5 km/h (2 Bft)
07.07.2015 14:35 33,8 C 37,4 C 40 % 1018,8 hPa 0,0 mm 7,5 km/h (2 Bft) NW 315 18,3 C 20,5 km/h (4 Bft)
07.07.2015 14:40 33,6 C 37,1 C 40 % 1018,7 hPa 0,0 mm 8,5 km/h (2 Bft) NW 315 18,1 C 8,3 km/h (2 Bft)
07.07.2015 14:45 33,6 C 36,8 C 40 % 1018,7 hPa 0,0 mm 9,6 km/h (2 Bft) W-NW 292 18,1 C 10,1 km/h (2 Bft)
07.07.2015 14:50 33,8 C 37,0 C 40 % 1018,7 hPa 0,0 mm 8,5 km/h (2 Bft) NW 315 18,3 C 10,1 km/h (2 Bft)
07.07.2015 14:55 33,7 C 37,0 C 40 % 1018,7 hPa 0,0 mm 8,5 km/h (2 Bft) W 270 18,2 C 7,8 km/h (2 Bft)
07.07.2015 15:00 33,3 C 36,9 C 40 % 1018,7 hPa 0,0 mm 9,6 km/h (2 Bft) W-SW 247 17,8 C 13,5 km/h (3 Bft)
07.07.2015 15:05 33,2 C 36,6 C 41 % 1018,7 hPa 0,0 mm 7,8 km/h (2 Bft) S-SO 157 18,1 C 2,6 km/h (1 Bft)
07.07.2015 15:10 32,8 C 36,2 C 41 % 1018,7 hPa 0,0 mm 3,6 km/h (1 Bft) W 270 17,8 C 5,2 km/h (1 Bft)
07.07.2015 15:15 32,9 C 36,2 C 42 % 1018,7 hPa 0,0 mm 2,6 km/h (1 Bft) S-SW 202 18,3 C 7,3 km/h (2 Bft)
07.07.2015 15:20 33,3 C 36,9 C 41 % 1018,6 hPa 0,0 mm 5,4 km/h (1 Bft) W 270 18,2 C 7,3 km/h (2 Bft)
07.07.2015 15:25 33,3 C 37,0 C 40 % 1018,6 hPa 0,0 mm 8,3 km/h (2 Bft) NW 315 17,8 C 18,9 km/h (3 Bft)
07.07.2015 15:30 33,1 C 36,6 C 41 % 1018,6 hPa 0,0 mm 8,8 km/h (2 Bft) W 270 18,0 C 7,8 km/h (2 Bft)
07.07.2015 15:35 33,1 C 36,8 C 41 % 1018,6 hPa 0,0 mm 8,0 km/h (2 Bft) N-NW 337 18,0 C 6,5 km/h (2 Bft)
07.07.2015 15:40 33,3 C 37,3 C 41 % 1018,4 hPa 0,0 mm 5,7 km/h (1 Bft) W-NW 292 18,2 C 7,3 km/h (2 Bft)
07.07.2015 15:45 33,4 C 37,6 C 41 % 1018,4 hPa 0,0 mm 6,2 km/h (2 Bft) W 270 18,3 C 6,5 km/h (2 Bft)
07.07.2015 15:50 33,4 C 37,7 C 40 % 1018,4 hPa 0,0 mm 6,0 km/h (2 Bft) W-NW 292 17,9 C 13,2 km/h (3 Bft)
07.07.2015 15:55 33,4 C 37,8 C 40 % 1018,4 hPa 0,0 mm 5,4 km/h (1 Bft) W-NW 292 17,9 C 19,4 km/h (3 Bft)
07.07.2015 16:00 33,3 C 37,6 C 39 % 1018,2 hPa 0,0 mm 7,0 km/h (2 Bft) N-NO 22 17,4 C 9,8 km/h (2 Bft)
07.07.2015 16:05 33,0 C 37,5 C 39 % 1018,2 hPa 0,0 mm 8,3 km/h (2 Bft) W-SW 247 17,2 C 14,2 km/h (3 Bft)
07.07.2015 16:10 32,7 C 37,0 C 39 % 1018,2 hPa 0,0 mm 9,3 km/h (2 Bft) O-SO 112 16,9 C 22,5 km/h (4 Bft)
07.07.2015 16:15 32,5 C 36,9 C 39 % 1018,2 hPa 0,0 mm 9,6 km/h (2 Bft) W 270 16,7 C 16,3 km/h (3 Bft)
07.07.2015 16:20 32,0 C 36,7 C 39 % 1017,8 hPa 0,0 mm 9,6 km/h (2 Bft) W 270 16,3 C 15,0 km/h (3 Bft)
07.07.2015 16:25 32,0 C 36,6 C 39 % 1017,8 hPa 0,0 mm 10,1 km/h (2 Bft) NW 315 16,3 C 9,8 km/h (2 Bft)
07.07.2015 16:30 31,9 C 36,3 C 40 % 1017,8 hPa 0,0 mm 10,6 km/h (2 Bft) NW 315 16,6 C 11,9 km/h (2 Bft)
07.07.2015 16:35 31,8 C 36,3 C 40 % 1017,8 hPa 0,0 mm 10,4 km/h (2 Bft) W 270 16,5 C 12,7 km/h (3 Bft)
07.07.2015 16:40 31,8 C 36,2 C 39 % 1017,6 hPa 0,0 mm 10,4 km/h (2 Bft) W-SW 247 16,1 C 34,2 km/h (5 Bft)
07.07.2015 16:45 31,7 C 36,3 C 39 % 1017,6 hPa 0,0 mm 10,4 km/h (2 Bft) NW 315 16,0 C 18,4 km/h (3 Bft)
07.07.2015 16:50 31,7 C 36,3 C 40 % 1017,6 hPa 0,0 mm 9,3 km/h (2 Bft) W-NW 292 16,4 C 6,7 km/h (2 Bft)
07.07.2015 16:55 31,7 C 36,4 C 40 % 1017,6 hPa 0,0 mm 9,8 km/h (2 Bft) W-SW 247 16,4 C 8,5 km/h (2 Bft)
07.07.2015 17:00 31,6 C 36,5 C 39 % 1017,5 hPa 0,0 mm 8,0 km/h (2 Bft) W-SW 247 15,9 C 9,1 km/h (2 Bft)
07.07.2015 17:05 31,5 C 36,4 C 39 % 1017,5 hPa 0,0 mm 8,8 km/h (2 Bft) W 270 15,8 C 10,1 km/h (2 Bft)
07.07.2015 17:10 31,5 C 35,3 C 41 % 1017,5 hPa 0,0 mm 8,5 km/h (2 Bft) NW 315 16,6 C 9,3 km/h (2 Bft)
07.07.2015 17:15 31,4 C 34,4 C 40 % 1017,5 hPa 0,0 mm 8,3 km/h (2 Bft) W-SW 247 16,1 C 11,7 km/h (2 Bft)
07.07.2015 17:20 31,3 C 33,4 C 39 % 1017,3 hPa 0,0 mm 8,8 km/h (2 Bft) W 270 15,7 C 10,1 km/h (2 Bft)
07.07.2015 17:25 31,3 C 33,0 C 40 % 1017,3 hPa 0,0 mm 9,3 km/h (2 Bft) SW 225 16,1 C 10,9 km/h (2 Bft)
07.07.2015 17:30 31,2 C 32,7 C 38 % 1017,3 hPa 0,0 mm 8,3 km/h (2 Bft) W-NW 292 15,2 C 10,6 km/h (2 Bft)
07.07.2015 17:35 31,2 C 32,6 C 39 % 1017,3 hPa 0,0 mm 8,0 km/h (2 Bft) W-SW 247 15,6 C 10,9 km/h (2 Bft)
07.07.2015 17:40 31,1 C 32,5 C 38 % 1017,1 hPa 0,0 mm 8,0 km/h (2 Bft) W-SW 247 15,1 C 18,6 km/h (3 Bft)
07.07.2015 17:45 31,0 C 32,4 C 39 % 1017,1 hPa 0,0 mm 6,5 km/h (2 Bft) W 270 15,4 C 6,5 km/h (2 Bft)
07.07.2015 17:50 31,0 C 32,3 C 39 % 1017,1 hPa 0,0 mm 6,0 km/h (2 Bft) O-NO 67 15,4 C 6,5 km/h (2 Bft)
07.07.2015 17:55 31,0 C 32,3 C 38 % 1017,1 hPa 0,0 mm 5,7 km/h (1 Bft) W-NW 292 15,0 C 10,1 km/h (2 Bft)
07.07.2015 18:00 30,9 C 32,4 C 39 % 1016,9 hPa 0,0 mm 7,3 km/h (2 Bft) N-NW 337 15,3 C 3,4 km/h (1 Bft)
07.07.2015 18:05 30,9 C 32,4 C 38 % 1016,9 hPa 0,0 mm 7,0 km/h (2 Bft) NW 315 14,9 C 14,8 km/h (3 Bft)
07.07.2015 18:10 30,8 C 32,2 C 38 % 1016,9 hPa 0,0 mm 6,0 km/h (2 Bft) NW 315 14,8 C 6,7 km/h (2 Bft)
07.07.2015 18:15 30,8 C 32,1 C 39 % 1016,9 hPa 0,0 mm 6,7 km/h (2 Bft) W 270 15,2 C 5,2 km/h (1 Bft)
07.07.2015 18:20 30,8 C 32,1 C 39 % 1016,6 hPa 0,0 mm 5,2 km/h (1 Bft) SO 135 15,2 C 3,6 km/h (1 Bft)
07.07.2015 18:25 30,7 C 32,0 C 39 % 1016,6 hPa 0,0 mm 4,4 km/h (1 Bft) W 270 15,1 C 9,3 km/h (2 Bft)
07.07.2015 18:30 30,6 C 31,9 C 40 % 1016,6 hPa 0,0 mm 4,4 km/h (1 Bft) W 270 15,4 C 10,9 km/h (2 Bft)
07.07.2015 18:35 30,6 C 31,9 C 40 % 1016,6 hPa 0,0 mm 4,1 km/h (1 Bft) NW 315 15,4 C 3,4 km/h (1 Bft)
07.07.2015 18:40 30,5 C 32,6 C 42 % 1016,5 hPa 0,0 mm 3,9 km/h (1 Bft) W-NW 292 16,1 C 0,0 km/h (0 Bft)
07.07.2015 18:45 30,1 C 33,7 C 43 % 1016,5 hPa 0,0 mm 2,1 km/h (1 Bft) O 90 16,1 C 0,0 km/h (0 Bft)
07.07.2015 18:50 30,3 C 34,9 C 43 % 1016,5 hPa 0,0 mm 1,3 km/h (1 Bft) W-NW 292 16,3 C 3,1 km/h (1 Bft)
07.07.2015 18:55 30,3 C 35,3 C 44 % 1016,5 hPa 0,0 mm 2,3 km/h (1 Bft) N-NW 337 16,7 C 3,9 km/h (1 Bft)
07.07.2015 19:00 30,2 C 35,5 C 44 % 1016,1 hPa 0,0 mm 2,3 km/h (1 Bft) N-NW 337 16,6 C 0,0 km/h (0 Bft)
07.07.2015 19:05 30,0 C 35,8 C 45 % 1016,1 hPa 0,0 mm 1,6 km/h (1 Bft) O-NO 67 16,7 C 0,0 km/h (0 Bft)
07.07.2015 19:10 29,7 C 36,0 C 46 % 1016,1 hPa 0,0 mm 0,0 km/h (0 Bft) O 90 16,8 C 0,0 km/h (0 Bft)
07.07.2015 19:15 29,6 C 36,1 C 46 % 1016,1 hPa 0,0 mm 0,0 km/h (0 Bft) S-SO 157 16,7 C 0,0 km/h (0 Bft)
07.07.2015 19:20 29,3 C 36,4 C 46 % 1015,8 hPa 0,0 mm 0,0 km/h (0 Bft) O-SO 112 16,5 C 0,0 km/h (0 Bft)
07.07.2015 19:25 29,2 C 36,4 C 46 % 1015,8 hPa 0,0 mm 0,0 km/h (0 Bft) O-SO 112 16,4 C 0,0 km/h (0 Bft)
07.07.2015 19:30 29,3 C 36,0 C 47 % 1015,8 hPa 0,0 mm 0,3 km/h (0 Bft) O-SO 112 16,8 C 2,6 km/h (1 Bft)
07.07.2015 19:31 29,1 C 35,6 C 47 % 1015,4 hPa 0,0 mm 0,3 km/h (0 Bft) SO 135 16,6 C 2,6 km/h (1 Bft)
07.07.2015 19:32 29,1 C 35,6 C 47 % 1014,9 hPa 0,0 mm 0,3 km/h (0 Bft) SO 135 16,6 C 2,6 km/h (1 Bft)
07.07.2015 19:35 29,1 C 35,6 C 47 % 1014,5 hPa 0,0 mm 0,3 km/h (0 Bft) SO 135 16,6 C 2,6 km/h (1 Bft)
07.07.2015 19:40 29,0 C 35,2 C 49 % 1013,9 hPa 0,0 mm 0,5 km/h (0 Bft) O 90 17,2 C 0,0 km/h (0 Bft)
07.07.2015 19:45 28,9 C 34,9 C 49 % 1013,4 hPa 0,0 mm 0,3 km/h (0 Bft) S-SW 202 17,1 C 0,0 km/h (0 Bft)
07.07.2015 19:50 28,9 C 34,8 C 50 % 1012,9 hPa 0,0 mm 0,0 km/h (0 Bft) O-NO 67 17,4 C 0,0 km/h (0 Bft)
07.07.2015 19:55 28,7 C 34,6 C 50 % 1012,4 hPa 0,0 mm 0,0 km/h (0 Bft) O 90 17,2 C 0,0 km/h (0 Bft)
07.07.2015 20:00 28,7 C 34,1 C 49 % 1011,9 hPa 0,0 mm 0,0 km/h (0 Bft) O-SO 112 16,9 C 0,0 km/h (0 Bft)
07.07.2015 20:05 28,5 C 33,9 C 52 % 1011,5 hPa 0,0 mm 0,0 km/h (0 Bft) S-SO 157 17,7 C 0,0 km/h (0 Bft)
07.07.2015 20:10 27,8 C 32,9 C 51 % 1010,4 hPa 0,0 mm 0,0 km/h (0 Bft) O-SO 112 16,7 C 0,0 km/h (0 Bft)
07.07.2015 20:15 27,7 C 31,9 C 50 % 1009,9 hPa 0,0 mm 0,0 km/h (0 Bft) S-SO 157 16,3 C 2,8 km/h (1 Bft)
07.07.2015 20:16 27,1 C 30,4 C 54 % 1009,4 hPa 0,0 mm 2,1 km/h (1 Bft) S-SW 202 17,0 C 6,7 km/h (2 Bft)
07.07.2015 20:21 26,9 C 29,7 C 56 % 1008,9 hPa 0,0 mm 2,8 km/h (1 Bft) O-NO 67 17,4 C 0,0 km/h (0 Bft)
07.07.2015 20:26 26,4 C 28,7 C 56 % 1008,4 hPa 0,0 mm 2,3 km/h (1 Bft) O-SO 112 16,9 C 0,0 km/h (0 Bft)
07.07.2015 20:27 26,4 C 28,7 C 56 % 1007,9 hPa 0,0 mm 2,3 km/h (1 Bft) O-SO 112 16,9 C 0,0 km/h (0 Bft)
07.07.2015 20:29 26,4 C 28,7 C 56 % 1007,4 hPa 0,0 mm 2,3 km/h (1 Bft) O-SO 112 16,9 C 0,0 km/h (0 Bft)
07.07.2015 20:31 25,8 C 28,0 C 59 % 1007,4 hPa 0,0 mm 0,5 km/h (0 Bft) S 180 17,2 C 0,0 km/h (0 Bft)
07.07.2015 20:33 25,8 C 28,0 C 59 % 1007,4 hPa 0,0 mm 0,5 km/h (0 Bft) S 180 17,2 C 0,0 km/h (0 Bft)
07.07.2015 20:35 25,8 C 28,0 C 59 % 1007,4 hPa 0,0 mm 0,5 km/h (0 Bft) S 180 17,2 C 0,0 km/h (0 Bft)
07.07.2015 20:40 25,3 C 27,0 C 59 % 1007,4 hPa 0,0 mm 0,0 km/h (0 Bft) SO 135 16,7 C 0,0 km/h (0 Bft)
07.07.2015 20:45 25,5 C 26,6 C 58 % 1007,4 hPa 0,0 mm 0,8 km/h (0 Bft) SO 135 16,6 C 4,4 km/h (1 Bft)
07.07.2015 20:50 25,2 C 26,2 C 59 % 1006,6 hPa 0,0 mm 0,8 km/h (0 Bft) O-NO 67 16,6 C 0,0 km/h (0 Bft)
07.07.2015 20:55 24,8 C 25,8 C 59 % 1006,6 hPa 0,0 mm 0,5 km/h (0 Bft) W 270 16,2 C 0,0 km/h (0 Bft)
07.07.2015 21:00 24,4 C 24,9 C 61 % 1006,6 hPa 0,0 mm 0,0 km/h (0 Bft) O 90 16,4 C 0,0 km/h (0 Bft)
07.07.2015 21:05 24,2 C 24,7 C 62 % 1006,6 hPa 0,0 mm 0,0 km/h (0 Bft) W-SW 247 16,4 C 0,0 km/h (0 Bft)
07.07.2015 21:10 24,0 C 24,3 C 62 % 1006,6 hPa 0,0 mm 0,3 km/h (0 Bft) SO 135 16,3 C 0,0 km/h (0 Bft)
07.07.2015 21:15 24,0 C 24,3 C 63 % 1006,6 hPa 0,0 mm 1,6 km/h (1 Bft) S-SO 157 16,5 C 6,2 km/h (2 Bft)
07.07.2015 21:20 24,5 C 24,8 C 62 % 1006,6 hPa 0,0 mm 3,6 km/h (1 Bft) S-SO 157 16,7 C 4,4 km/h (1 Bft)
07.07.2015 21:25 24,4 C 25,0 C 62 % 1006,6 hPa 0,0 mm 3,1 km/h (1 Bft) SO 135 16,6 C 2,6 km/h (1 Bft)
07.07.2015 21:30 23,9 C 24,7 C 64 % 1006,4 hPa 0,0 mm 1,0 km/h (0 Bft) SO 135 16,7 C 4,4 km/h (1 Bft)
07.07.2015 21:35 24,0 C 24,7 C 63 % 1006,4 hPa 0,0 mm 1,8 km/h (1 Bft) S-SO 157 16,5 C 2,8 km/h (1 Bft)
07.07.2015 21:40 23,8 C 24,7 C 64 % 1006,4 hPa 0,0 mm 4,1 km/h (1 Bft) W-SW 247 16,6 C 9,8 km/h (2 Bft)
07.07.2015 21:45 24,3 C 24,7 C 60 % 1006,4 hPa 0,0 mm 6,5 km/h (2 Bft) SW 225 16,0 C 25,9 km/h (4 Bft)
07.07.2015 21:50 20,3 C 20,2 C 63 % 1008,7 hPa 2,7 mm 14,0 km/h (3 Bft) W-SW 247 13,0 C 47,6 km/h (6 Bft)
07.07.2015 21:55 19,5 C 19,1 C 69 % 1008,7 hPa 2,1 mm 15,0 km/h (3 Bft) S 180 13,7 C 12,4 km/h (3 Bft)
07.07.2015 22:00 18,9 C 18,4 C 74 % 1008,7 hPa 1,4 mm 9,3 km/h (2 Bft) S 180 14,2 C 11,4 km/h (2 Bft)
07.07.2015 22:05 19,2 C 18,6 C 76 % 1008,7 hPa 0,0 mm 8,3 km/h (2 Bft) S-SO 157 14,9 C 15,8 km/h (3 Bft)
07.07.2015 22:10 19,5 C 18,9 C 77 % 1009,2 hPa 0,0 mm 9,1 km/h (2 Bft) S-SW 202 15,4 C 9,3 km/h (2 Bft)
07.07.2015 22:15 19,7 C 19,0 C 75 % 1009,2 hPa 0,0 mm 9,8 km/h (2 Bft) S-SW 202 15,1 C 15,0 km/h (3 Bft)
07.07.2015 22:20 19,7 C 18,9 C 73 % 1009,2 hPa 0,7 mm 13,2 km/h (3 Bft) S-SO 157 14,7 C 16,3 km/h (3 Bft)
07.07.2015 22:25 19,3 C 18,6 C 73 % 1009,2 hPa 0,0 mm 12,7 km/h (3 Bft) W-SW 247 14,3 C 4,7 km/h (1 Bft)
07.07.2015 22:30 18,2 C 17,8 C 80 % 1008,2 hPa 0,0 mm 6,5 km/h (2 Bft) S-SO 157 14,7 C 3,1 km/h (1 Bft)
07.07.2015 22:35 18,0 C 17,7 C 81 % 1008,2 hPa 0,0 mm 3,6 km/h (1 Bft) O-NO 67 14,7 C 6,2 km/h (2 Bft)
07.07.2015 22:40 17,7 C 17,4 C 84 % 1008,2 hPa 0,0 mm 2,8 km/h (1 Bft) O-SO 112 15,0 C 0,0 km/h (0 Bft)
07.07.2015 22:45 17,6 C 17,3 C 84 % 1008,2 hPa 0,0 mm 2,8 km/h (1 Bft) SO 135 14,9 C 0,0 km/h (0 Bft)
07.07.2015 22:50 17,6 C 17,3 C 84 % 1006,6 hPa 0,0 mm 0,3 km/h (0 Bft) W-NW 292 14,9 C 0,0 km/h (0 Bft)
07.07.2015 22:55 17,6 C 17,3 C 84 % 1006,6 hPa 0,0 mm 0,5 km/h (0 Bft) NO 45 14,9 C 0,0 km/h (0 Bft)
07.07.2015 23:00 17,5 C 17,3 C 84 % 1006,6 hPa 0,0 mm 0,8 km/h (0 Bft) O-NO 67 14,8 C 3,4 km/h (1 Bft)
07.07.2015 23:05 17,4 C 17,2 C 84 % 1006,6 hPa 0,0 mm 0,8 km/h (0 Bft) N-NW 337 14,7 C 0,0 km/h (0 Bft)
07.07.2015 23:10 17,5 C 17,2 C 83 % 1006,4 hPa 0,0 mm 2,8 km/h (1 Bft) NO 45 14,6 C 4,9 km/h (1 Bft)
07.07.2015 23:15 17,3 C 17,1 C 84 % 1006,4 hPa 0,0 mm 3,1 km/h (1 Bft) SO 135 14,6 C 3,6 km/h (1 Bft)
07.07.2015 23:20 17,1 C 16,9 C 85 % 1006,4 hPa 0,0 mm 1,6 km/h (1 Bft) S-SO 157 14,6 C 0,0 km/h (0 Bft)
07.07.2015 23:25 17,1 C 16,8 C 84 % 1006,4 hPa 0,0 mm 1,0 km/h (0 Bft) S-SO 157 14,4 C 0,0 km/h (0 Bft)
07.07.2015 23:30 17,0 C 16,7 C 84 % 1007,0 hPa 0,0 mm 0,3 km/h (0 Bft) O-SO 112 14,3 C 0,0 km/h (0 Bft)
07.07.2015 23:35 17,0 C 16,7 C 84 % 1007,0 hPa 0,0 mm 0,8 km/h (0 Bft) W-NW 292 14,3 C 4,4 km/h (1 Bft)
07.07.2015 23:40 16,9 C 16,7 C 83 % 1007,0 hPa 0,0 mm 0,8 km/h (0 Bft) N-NW 337 14,0 C 0,0 km/h (0 Bft)
07.07.2015 23:45 17,0 C 16,8 C 83 % 1007,0 hPa 0,0 mm 0,5 km/h (0 Bft) N-NW 337 14,1 C 0,0 km/h (0 Bft)
07.07.2015 23:50 17,0 C 16,8 C 80 % 1006,8 hPa 0,0 mm 0,0 km/h (0 Bft) O 90 13,5 C 0,0 km/h (0 Bft)
07.07.2015 23:55 17,0 C 16,7 C 82 % 1006,8 hPa 0,0 mm 0,0 km/h (0 Bft) N 360 13,9 C 0,0 km/h (0 Bft)
_ Min-Zeit 05:05 04:35 18:10 23:25 - 23:55 - - 21:50 23:55
Minimum _ 16,7 C 16,5 C 38 % 1006,4 hPa - 0,0 km/h (0 Bft) - - 13,0 C 0,0 km/h (0 Bft)
_ Max-Zeit 14:20 09:40 02:15 00:10 21:50 21:55 - - 09:40 21:50
Maximum _ 33,9 C 39,5 C 87 % 1022,3 hPa 2,7 mm 15,0 km/h
S (3 Bft)
- - 20,8 C 47,6 km/h
W-SW (6 Bft)
Durchschnitt _ 24,9 C 28,0 C 63 % 1017,6 hPa #6,9 mm 2,8 km/h (1 Bft) W - 16,5 C 4,1 km/h (1 Bft)